Location: Naloco
(16.5478°S, 37.1017°E)
Time: 02:54:17
(UTC+00:00)

Cosmos 1302 Rocket - Pass Details

Date: 13 August 2020
Orbit: 756 x 776 km, 74.0° (Epoch: 23 September)

Event Time Altitude Azimuth Distance (km) Brightness Sun altitude
Rises 16:46:10 0° 355° (N) 3,216 7.4 -20.4°
Reaches altitude 10° 16:48:32 10° 358° (N) 2,299 6.6 -21.0°
Maximum altitude 16:53:42 63° 78° (ENE) 862 3.9 -22.2°
Enters shadow 16:54:56 48° 132° (SE) 1,004 4.2 -22.5°
